Location: NJAA Observatory
(40.6819°N, 74.8979°W)
Time: 07:54:32
(UTC-05:00)

Cosmos 2263 Rocket - Visible Passes

Search period start: 10 February 2016 00:00
Search period end: 20 February 2016 00:00
Orbit: 825 x 847 km, 71.0° (Epoch: 09 February)

Date Brightness Start Highest point End Pass type
(mag) Time Alt. Az. Time Alt. Az. Time Alt. Az.
10 Feb 3.7 04:46:55 10° S 04:51:56 35° ESE 04:56:57 10° NE visible
10 Feb 2.9 06:30:54 10° WSW 06:35:50 32° WNW 06:40:49 10° N visible
11 Feb 3.8 04:30:24 10° SSE 04:35:17 33° ESE 04:40:11 10° NE visible
11 Feb 2.8 06:14:05 10° WSW 06:19:07 35° WNW 06:24:11 10° N visible
12 Feb 3.9 04:13:54 10° SSE 04:18:38 30° ESE 04:23:24 10° NE visible
12 Feb 2.7 05:57:16 10° SW 06:02:24 37° WNW 06:07:34 10° N visible
13 Feb 4.0 03:59:02 17° SSE 04:02:00 27° ESE 04:06:37 10° NE visible
13 Feb 2.6 05:40:52 12° SW 05:45:41 40° WNW 05:50:56 10° N visible
14 Feb 4.0 03:44:16 24° ESE 03:45:22 25° ESE 03:49:49 10° NE visible
14 Feb 2.5 05:26:03 24° WSW 05:28:59 44° WNW 05:34:18 10° NNE visible
15 Feb 4.2 03:29:04 23° E 03:29:04 23° E 03:33:00 10° NE visible
15 Feb 2.4 05:10:50 39° WSW 05:12:17 47° WNW 05:17:40 10° NNE visible
16 Feb 4.5 03:13:37 19° ENE 03:13:37 19° ENE 03:16:10 10° NE visible
16 Feb 2.2 04:55:21 51° WNW 04:55:35 52° WNW 05:01:01 10° NNE visible
17 Feb 4.8 02:57:58 15° ENE 02:57:58 15° ENE 02:59:18 10° NE visible
17 Feb 2.4 04:39:42 51° NNW 04:39:42 51° NNW 04:44:22 10° NNE visible
18 Feb 5.1 02:42:10 11° ENE 02:42:10 11° ENE 02:42:25 10° ENE visible
18 Feb 2.9 04:23:54 42° N 04:23:54 42° N 04:27:43 10° NNE visible
18 Feb 4.1 06:06:34 10° NW 06:07:19 10° NW 06:08:04 10° NW visible
19 Feb 3.3 04:08:00 33° N 04:08:00 33° N 04:11:04 10° NNE visible
19 Feb 4.0 05:49:43 11° NW 05:50:33 11° NW 05:52:08 10° NNW visible
